Date String (YYYY-MM-DD hh:mm:ss) UTC,Instrument flags,Ambient pressure (hPa),Sample flow (lpm),Bypass flow (lpm),Sample temperature (°C),Ambient temperature (°C),ASC tube jacket temperature (°C),LED temperature (°C),Box temperature (°C),Sample RH (%),Span deviation,Mass concentration (μg/m³),Mass concentration (μg/m³),Mass concentration (μg/m³)
DateTimeUTC,F1_M11,P_M11,Q1_M11,Q2_M11,T1_M11,T2_M11,T3_M11,T4_M11,T5_M11,U1_M11,ZSPAN_M11,X0_M11,X2_M11,X1_M11
2022-08-16 15:00:00,,0832.5,4.99,0.00,32.3,29.2,00.0,40.5,32.8,34.9,0000.0,0010.01,0006.12,0005.31
2022-08-16 15:01:00,,0832.4,5.01,0.00,32.3,29.3,00.0,40.5,32.8,35.0,0000.0,0009.88,0006.15,0005.35
2022-08-16 15:02:00,,0832.4,5.00,0.00,32.3,29.3,00.0,40.5,32.9,34.9,0000.0,0009.86,0006.24,0005.39
2022-08-16 15:03:00,,0832.4,4.99,0.00,32.4,29.3,00.0,40.5,33.0,34.7,0000.0,0010.04,0006.35,0005.46
2022-08-16 15:04:00,,0832.4,4.99,0.00,32.4,29.4,00.0,40.5,33.0,34.6,0000.0,0010.12,0006.42,0005.52
2022-08-16 15:05:00,,0832.4,5.01,0.00,32.4,29.4,00.0,40.5,32.9,34.7,0000.0,0010.35,0006.53,0005.56
2022-08-16 15:06:00,,0832.4,5.00,0.00,32.4,29.4,00.0,40.5,32.9,34.8,0000.0,0010.49,0006.62,0005.64
2022-08-16 15:07:00,,0832.4,4.99,0.00,32.3,29.0,00.0,40.5,32.8,34.9,0000.0,0010.58,0006.68,0005.69
2022-08-16 15:08:00,,0832.4,5.00,0.00,32.3,28.3,00.0,40.5,32.6,35.1,0000.0,0010.69,0006.79,0005.75
2022-08-16 15:09:00,,0832.3,4.99,0.00,32.3,28.0,00.0,40.4,32.6,35.0,0000.0,0010.66,0006.82,0005.78
2022-08-16 15:10:00,,0832.4,5.00,0.00,32.3,27.9,00.0,40.4,32.6,34.7,0000.0,0010.53,0006.78,0005.78
2022-08-16 15:11:00,,0832.4,5.00,0.00,32.3,28.0,00.0,40.4,32.6,34.5,0000.0,0010.36,0006.71,0005.75
2022-08-16 15:12:00,,0832.3,5.00,0.00,32.3,28.1,00.0,40.3,32.5,34.4,0000.0,0010.28,0006.64,0005.72
2022-08-16 15:13:00,,0832.3,5.01,0.00,32.2,28.2,00.0,40.3,32.5,34.6,0000.0,0010.25,0006.58,0005.70
2022-08-16 15:14:00,,0832.3,4.99,0.00,32.2,28.4,00.0,40.3,32.5,34.7,0000.0,0010.16,0006.54,0005.69
2022-08-16 15:15:00,,0832.3,5.00,0.00,32.1,28.5,00.0,40.3,32.5,35.0,0000.0,0010.04,0006.49,0005.67
2022-08-16 15:16:00,,0832.3,5.01,0.00,32.2,28.6,00.0,40.3,32.6,35.1,0000.0,0009.87,0006.44,0005.66
2022-08-16 15:17:00,,0832.4,4.99,0.00,32.4,28.7,00.0,40.3,32.7,34.7,-000.0,0009.73,0006.38,0005.62
2022-08-16 15:18:00,,0832.4,5.00,0.00,32.5,28.8,00.0,40.3,32.7,34.5,-000.8,0009.57,0006.32,0005.57
2022-08-16 15:19:00,,0832.4,5.00,0.00,32.5,28.8,00.0,40.3,32.7,34.4,-000.0,0009.38,0006.22,0005.51
2022-08-16 15:20:00,,0832.4,4.99,0.00,32.5,28.9,00.0,40.4,32.7,34.4,-000.1,0009.34,0006.18,0005.48
2022-08-16 15:21:00,,0832.4,5.00,0.00,32.4,28.9,00.0,40.4,32.7,34.5,-000.1,0009.31,0006.16,0005.46
2022-08-16 15:22:00,,0832.4,5.00,0.00,32.4,29.0,00.0,40.4,32.7,34.6,0000.0,0009.29,0006.15,0005.45
2022-08-16 15:23:00,,0832.4,5.00,0.00,32.3,29.0,00.0,40.4,32.7,34.7,0000.0,0009.26,0006.13,0005.43
2022-08-16 15:24:00,,0832.4,5.01,0.00,32.3,29.1,00.0,40.4,32.7,34.8,0000.0,0009.19,0006.12,0005.41
2022-08-16 15:25:00,,0832.3,5.00,0.00,32.2,29.1,00.0,40.4,32.7,34.8,0000.0,0009.16,0006.11,0005.39
2022-08-16 15:26:00,,0832.3,5.00,0.00,32.2,29.2,00.0,40.4,32.7,35.0,0000.0,0009.24,0006.11,0005.38
2022-08-16 15:27:00,,0832.4,5.00,0.00,32.2,29.2,00.0,40.4,32.8,35.0,0000.0,0009.29,0006.09,0005.36
2022-08-16 15:28:00,,0832.4,4.99,0.00,32.3,29.2,00.0,40.4,32.8,34.7,0000.0,0009.30,0006.07,0005.34
2022-08-16 15:29:00,,0832.4,5.00,0.00,32.3,29.2,00.0,40.4,32.9,34.5,0000.0,0009.17,0006.02,0005.33
2022-08-16 15:30:00,,0832.5,5.00,0.00,32.3,29.3,00.0,40.4,32.8,34.5,0000.0,0009.20,0006.02,0005.34
2022-08-16 15:31:00,,0832.4,5.00,0.00,32.3,29.3,00.0,40.4,32.8,34.7,0000.0,0009.16,0005.98,0005.33
2022-08-16 15:32:00,,0832.4,4.99,0.00,32.2,29.3,00.0,40.4,32.8,34.8,0000.0,0009.20,0006.00,0005.35
2022-08-16 15:33:00,,0832.5,5.00,0.00,32.2,29.3,00.0,40.4,32.8,34.9,0000.0,0009.33,0006.05,0005.35
2022-08-16 15:34:00,,0832.4,5.00,0.00,32.2,29.4,00.0,40.5,32.8,35.1,0000.0,0009.27,0006.03,0005.36
2022-08-16 15:35:00,,0832.4,5.01,0.00,32.3,29.4,00.0,40.4,32.9,34.9,0000.0,0009.23,0005.98,0005.34
2022-08-16 15:36:00,,0832.5,5.01,0.00,32.4,29.4,00.0,40.4,33.0,34.6,0000.0,0009.11,0005.92,0005.31
2022-08-16 15:37:00,,0832.5,5.00,0.00,32.5,28.9,00.0,40.4,32.8,34.5,0000.0,0009.01,0005.86,0005.26
2022-08-16 15:38:00,,0832.5,5.01,0.00,32.4,28.2,00.0,40.4,32.6,34.6,0000.0,0008.89,0005.81,0005.23
2022-08-16 15:39:00,,0832.5,4.99,0.00,32.3,27.9,00.0,40.4,32.5,34.9,0000.0,0008.90,0005.81,0005.20
2022-08-16 15:40:00,,0832.5,5.01,0.00,32.2,27.9,00.0,40.3,32.4,35.2,0000.0,0008.92,0005.79,0005.16
2022-08-16 15:41:00,,0832.5,5.00,0.00,32.3,28.0,00.0,40.3,32.5,35.1,0000.0,0008.84,0005.73,0005.11
2022-08-16 15:42:00,,0832.5,4.99,0.00,32.5,28.1,00.0,40.3,32.7,34.7,0000.0,0008.73,0005.67,0005.05
2022-08-16 15:43:00,,0832.5,4.99,0.00,32.5,28.2,00.0,40.3,32.6,34.6,0000.0,0008.53,0005.55,0004.98
2022-08-16 15:44:00,,0832.5,4.99,0.00,32.5,28.4,00.0,40.3,32.6,34.6,0000.0,0008.43,0005.41,0004.92
2022-08-16 15:45:00,,0832.6,5.01,0.00,32.5,28.5,00.0,40.3,32.6,34.6,0000.0,0008.63,0005.36,0004.88
2022-08-16 15:46:00,,0832.6,5.00,0.00,32.4,28.6,00.0,40.4,32.6,34.8,0000.0,0008.64,0005.38,0004.87
2022-08-16 15:47:00,,0832.5,5.00,0.00,32.4,28.7,00.0,40.4,32.6,35.0,0000.0,0008.69,0005.40,0004.88
2022-08-16 15:48:00,,0832.5,4.99,0.00,32.4,28.8,00.0,40.4,32.7,34.9,0000.0,0008.75,0005.42,0004.89
2022-08-16 15:49:00,,0832.5,5.00,0.00,32.5,28.8,00.0,40.4,32.7,34.8,0000.0,0008.79,0005.42,0004.88
2022-08-16 15:50:00,,0832.4,5.00,0.00,32.5,28.9,00.0,40.4,32.7,34.8,0000.0,0008.77,0005.41,0004.87
2022-08-16 15:51:00,,0832.5,5.00,0.00,32.4,29.0,00.0,40.4,32.7,34.8,0000.0,0008.74,0005.40,0004.86
2022-08-16 15:52:00,,0832.4,5.01,0.00,32.4,29.0,00.0,40.5,32.7,35.1,0000.0,0008.64,0005.36,0004.85
2022-08-16 15:53:00,,0832.5,5.00,0.00,32.5,29.1,00.0,40.5,32.8,35.0,0000.0,0008.63,0005.35,0004.86
2022-08-16 15:54:00,,0832.5,5.00,0.00,32.6,29.1,00.0,40.5,32.9,34.6,0000.0,0008.65,0005.34,0004.84
2022-08-16 15:55:00,,0832.5,5.00,0.00,32.7,29.1,00.0,40.5,32.9,34.5,0000.0,0008.64,0005.36,0004.83
2022-08-16 15:56:00,,0832.5,5.00,0.00,32.7,29.2,00.0,40.5,32.9,34.4,0000.0,0008.38,0005.35,0004.80
2022-08-16 15:57:00,,0832.5,4.99,0.00,32.7,29.2,00.0,40.6,32.9,34.5,0000.0,0008.31,0005.28,0004.75
2022-08-16 15:58:00,,0832.5,5.00,0.00,32.7,29.2,00.0,40.6,32.9,34.6,0000.0,0008.17,0005.20,0004.70
2022-08-16 15:59:00,,0832.5,5.01,0.00,32.6,29.3,00.0,40.6,32.9,34.7,0000.0,0007.99,0005.09,0004.63
